カタログに戻る

SL-19 DEB

運用中LEO
NORAD 23494·DEBRIS·🇷🇺 Russia

打ち上げ Dec 26, 1994 から Baikonur Cosmodrome

Loading…

次のパス (今後24時間)

TLE

最新Source: Space-Track

元期: Sep 14, 2026, 07:30 UTC

1 23494U 94085S   26257.31304569  .00003556  00000-0  62996-1 0  9993
2 23494  64.9691 219.1245 0132875  15.4655 135.6846 11.69621484594468

AllMySatでSL-19 DEBをリアルタイム追跡

Download on the App Store